Location: Drummondville
(45.8830°N, 72.4830°W)
Time: 21:09:25
(UTC-05:00)

Tiangong 1 - Pass Details

Date: 12 November 2017
Orbit: 284 x 308 km, 42.8° (Epoch: 21 November)

Event Time Altitude Azimuth Distance (km) Brightness Sun altitude
Exits shadow 04:49:19 12° 162° (SSE) 1,027 3.5 -20.4°
Drops below altitude 10° 04:49:42 10° 155° (SSE) 1,135 3.8 -20.3°
Sets 04:52:00 0° 134° (SE) 1,958 5.5 -19.9°
